Location: Lake Arresoe
(56.0000°N, 12.5000°E)
Time: 12:11:42
(UTC+01:00)

Cosmos 2058 - Pass Details

Date: 15 October 2019
Orbit: 562 x 584 km, 82.5° (Epoch: 19 November)

Event Time Altitude Azimuth Distance (km) Brightness Sun altitude
Rises 19:07:48 0° 356° (N) 2,823 6.5 -8.8°
Reaches altitude 10° 19:10:44 10° 17° (NNE) 1,920 5.4 -9.2°
Maximum altitude 19:13:29 17° 58° (ENE) 1,532 4.6 -9.6°
Enters shadow 19:15:14 13° 86° (E) 1,698 4.6 -9.8°
